Cloud_Cover
100 100 100 100 100 100 100 100 100 100 100 100 100 100 100 100 100 100 100 100 100 100 100 87 69 55 91 72 6 98 73 44 5 0 0 0 0 0 0 0 0 0 0 0 0
100 100 100 100 100 100 100 100 100 100 100 100 100 100 100 100 100 100 100 100 100 100 100 100 94 100 43 7 15 91 64 46 1 0 0 0 0 0 0 0 0 0 0 0 0
100 100 100 100 100 100 100 100 100 100 100 100 100 100 100 100 100 100 97 100 100 100 100 100 100 92 100 81 30 100 98 17 1 5 0 0 0 0 0 0 0 0 0 0 0
100 100 100 100 100 100 100 100 100 100 100 100 100 100 100 100 100 100 100 100 100 50 34 50 90 100 100 69 67 7 8 30 100 5 0 0 0 0 0 0 0 0 0 0 0
100 100 100 100 100 100 100 100 100 100 100 100 100 100 100 100 100 100 100 98 78 57 100 100 100 97 100 75 72 100 57 50 18 0 0 0 0 0 0 0 0 0 0 0 0
100 100 100 100 100 100 100 100 100 100 100 100 100 100 100 100 100 100 100 100 75 100 100 100 85 38 76 17 70 94 57 78 1 5 2 0 0 0 0 0 0 0 0 0 0
100 100 100 100 100 100 100 100 100 100 100 100 100 100 100 100 100 100 100 100 100 79 100 85 87 29 100 100 100 98 72 59 96 5 5 0 0 0 0 0 0 0 0 0 0
100 100 100 100 100 100 100 100 100 100 100 100 100 100 100 100 100 100 100 96 99 99 32 87 85 93 100 100 100 100 76 70 6 5 4 0 0 0 0 0 0 0 0 0 0
100 100 100 100 100 100 100 100 100 100 100 100 100 100 100 100 100 100 100 100 100 53 92 98 71 100 100 100 75 100 100 93 41 6 15 4 0 0 0 0 0 0 0 0 0
100 100 100 100 100 100 100 100 100 100 100 100 100 100 100 100 100 100 100 100 98 29 30 48 97 100 100 27 100 62 73 74 100 22 9 4 0 0 0 0 0 0 0 0 0
100 100 100 100 100 100 100 100 100 100 100 100 100 100 100 100 100 100 100 100 100 100 76 9 96 100 100 19 100 100 100 93 42 60 4 0 4 0 4 0 0 0 0 0 0
100 100 100 100 100 100 100 100 100 100 100 100 100 100 100 100 100 100 100 100 100 100 100 100 100 100 76 44 23 32 12 73 31 47 2 5 10 5 0 0 0 0 0 0 0
100 100 100 100 100 100 100 100 100 100 100 100 100 100 100 100 100 100 100 100 100 100 100 100 100 100 100 86 77 86 92 96 36 12 5 2 18 5 6 5 0 0 0 0 0
100 100 100 100 100 100 100 100 100 100 100 100 100 100 100 100 100 100 100 100 100 100 100 100 100 100 100 100 100 100 100 100 92 5 5 5 74 56 21 5 4 0 0 0 0
100 100 100 100 100 100 100 100 100 100 100 100 100 100 100 100 100 100 100 100 100 100 100 100 100 100 100 100 97 100 100 100 100 39 44 89 80 100 19 5 5 0 0 0 0
100 100 100 100 100 100 100 100 100 100 55 70 99 100 100 100 100 100 100 100 100 100 100 100 100 100 100 100 97 100 93 74 100 53 6 100 84 100 97 16 5 0 0 0 0
100 100 100 100 100 100 100 100 100 100 5 10 84 99 100 100 100 100 100 100 100 100 100 100 100 100 100 100 100 100 92 100 96 30 57 66 59 100 91 98 65 5 0 0 0
100 100 100 100 100 100 100 100 100 54 5 7 71 39 41 98 68 100 100 100 100 100 100 100 100 100 100 100 100 100 99 60 42 59 88 84 93 100 90 100 100 5 4 4 5
100 100 100 100 100 100 100 100 100 64 74 5 6 6 39 83 78 99 94 82 52 95 100 100 100 100 100 100 100 100 97 100 36 7 34 15 91 100 100 100 100 100 73 33 5
100 100 100 100 100 100 100 100 100 100 91 22 58 82 67 45 88 55 46 42 96 100 54 100 100 100 100 100 100 100 100 100 69 6 5 18 96 100 100 100 100 55 5 5 64
100 100 100 100 100 100 98 73 100 100 100 96 98 100 87 100 80 44 66 18 29 23 80 85 26 5 70 100 100 100 100 100 100 100 94 46 26 100 100 100 100 100 100 78 8
100 100 100 100 100 100 100 73 79 100 100 100 80 98 100 100 90 91 49 62 98 100 95 94 60 5 5 11 83 100 100 100 100 100 100 100 36 100 100 100 100 100 100 100 27
100 100 100 100 100 93 79 67 100 100 100 100 100 100 100 100 100 68 88 100 88 98 96 100 94 48 5 5 5 5 77 100 100 99 5 5 4 100 96 100 100 100 100 100 18
100 100 100 100 100 100 100 69 26 100 100 100 100 100 100 44 52 61 100 99 93 94 100 100 100 77 59 94 85 60 90 100 100 57 20 4 28 100 100 100 100 100 79 100 99
100 100 100 100 100 100 100 100 100 33 85 100 75 95 99 100 100 97 100 100 100 100 100 100 100 100 28 99 100 100 100 99 59 5 45 6 4 96 100 100 100 100 100 100 13
100 100 100 100 100 100 100 100 100 100 100 100 100 100 100 100 100 100 100 86 96 100 100 74 100 100 100 100 100 100 100 35 100 50 99 5 5 99 100 92 30 41 71 7 5
100 100 100 100 100 94 97 100 100 100 100 100 100 100 100 100 97 91 72 80 100 100 100 100 100 100 41 99 100 100 5 76 71 96 100 100 3 49 83 100 99 59 94 77 59